This demonstration page uses our WeatherBlox Daily Observations layout. Learn more.

Left ArrowRight Arrow

47.50024, -111.30081

Hourly Observations for December 2, 2022

Temp ( °F °C ) Dew Point ( °F °C ) Humidity (%) Winds ( mph kmh ) Pressure ( in mb ) Visibility ( mi km ) Precip ( " mm )
12:53 am 00:53 Cloudy -2 -18.9 -6 -21.1 83 83 NNW 6 9 29.99 1016 10 16 0.00 0.00
1:53 am 01:53 Cloudy -2 -18.9 -6 -21.1 83 83 NNW 7 11 30.03 1017 10 16 0.00 0.00
2:53 am 02:53 Cloudy -2 -18.9 -5 -20.6 86 86 NW 5 7 30.06 1018 10 16 0.00 0.00
3:53 am 03:53 Cloudy -2 -18.9 -5 -20.6 86 86 NW 3 6 30.08 1019 10 16 0.00 0.00
4:38 am 04:38 Cloudy -2 -18.9 -6 -21.1 83 83 NW 5 7 30.24 1024 10 16 0.00 0.00
4:53 am 04:53 Cloudy -2 -18.9 -5 -20.6 86 86 NW 3 6 30.11 1020 10 16 0.00 0.00
5:53 am 05:53 Cloudy -3 -19.4 -6 -21.1 86 86 NW 5 7 30.14 1021 10 16 0.00 0.00
6:53 am 06:53 Cloudy -3 -19.4 -6 -21.1 86 86 NW 3 6 30.18 1022 10 16 0.00 0.00
7:53 am 07:53 Cloudy -3 -19.4 -7 -21.7 82 82 NNW 5 7 30.22 1023 10 16 0.00 0.00
8:34 am 08:34 Cloudy -3 -19.4 -7 -21.7 82 82 Calm 30.38 1029 10 16 0.00 0.00
8:53 am 08:53 Cloudy -3 -19.4 -8 -22.2 78 78 Calm 30.26 1025 10 16 0.00 0.00
9:53 am 09:53 Cloudy -1 -18.3 -6 -21.1 78 78 Calm 30.28 1026 8 13 0.00 0.00
10:53 am 10:53 Cloudy 0 -17.8 -6 -21.1 75 75 Calm 30.30 1026 10 16 0.00 0.00
11:35 am 11:35 Partly Cloudy 1 -17.2 -5 -20.6 75 75 Calm 30.42 1030 10 16 0.00 0.00
11:53 am 11:53 Sunny 1 -17.2 -5 -20.6 75 75 NW 3 6 30.31 1027 10 16 0.00 0.00
12:53 pm 12:53 Sunny 4 -15.6 -4 -20 69 69 Calm 30.31 1026 10 16 0.00 0.00
1:53 pm 13:53 Sunny 2 -16.7 -4 -20 75 75 NNW 6 9 30.32 1027 10 16 0.00 0.00
2:53 pm 14:53 Sunny 2 -16.7 -3 -19.4 79 79 ESE 3 6 30.32 1027 10 16 0.00 0.00
3:53 pm 15:53 Sunny 2 -16.7 -4 -20 75 75 E 5 7 30.32 1027 10 16 0.00 0.00
4:53 pm 16:53 Clear 0 -17.8 -5 -20.6 79 79 Calm 30.34 1027 10 16 0.00 0.00
5:53 pm 17:53 Clear 1 -17.2 -3 -19.4 83 83 Calm 30.35 1028 10 16 0.00 0.00
6:53 pm 18:53 Clear 2 -16.7 -2 -18.9 83 83 Calm 30.32 1027 10 16 0.00 0.00
7:53 pm 19:53 Clear 4 -15.6 -1 -18.3 80 80 Calm 30.32 1027 10 16 0.00 0.00
8:53 pm 20:53 Clear 5 -15 -1 -18.3 76 76 SSW 9 15 30.32 1027 10 16 0.00 0.00
9:53 pm 21:53 Clear 17 -8.3 6 -14.4 61 61 SW 14 22 30.28 1025 10 16 0.00 0.00
10:53 pm 22:53 Clear 18 -7.8 6 -14.4 59 59 SW 15 24 30.27 1025 10 16 0.00 0.00
11:53 pm 23:53 Clear 18 -7.8 6 -14.4 59 59 SSW 13 20 30.25 1024 10 16 0.00 0.00

Powered by AerisWeather